Time,TemperatureF,DewpointF,PressureIn,WindDirection,WindDirectionDegrees,WindSpeedMPH,WindSpeedGustMPH,Humidity,HourlyPrecipIn,Conditions,Clouds,dailyrainin,SolarRadiationWatts/m^2,SoftwareType,DateUTC
2013-03-21 00:02:00,59.0,25.0,-100.00,West,276,12.0,24.0,27,0.00,,,0.00,0.000000,,2013-03-21 07:02:00,
2013-03-21 00:12:00,59.0,25.0,-100.00,West,276,12.0,24.0,27,0.00,,,0.00,0.000000,,2013-03-21 07:12:00,
2013-03-21 00:21:00,59.0,25.0,-100.00,West,276,12.0,24.0,27,0.00,,,0.00,0.000000,,2013-03-21 07:21:00,
2013-03-21 00:52:00,59.0,19.0,-100.00,NW,306,35.0,56.0,21,0.00,,,0.00,0.000000,,2013-03-21 07:52:00,
2013-03-21 01:02:00,59.0,19.0,-100.00,NW,306,35.0,56.0,21,0.00,,,0.00,0.000000,,2013-03-21 08:02:00,
2013-03-21 01:12:00,59.0,19.0,-100.00,NW,306,35.0,56.0,21,0.00,,,0.00,0.000000,,2013-03-21 08:12:00,
2013-03-21 01:22:00,59.0,19.0,-100.00,NW,306,35.0,56.0,21,0.00,,,0.00,0.000000,,2013-03-21 08:22:00,
2013-03-21 01:52:00,64.0,2.0,-100.00,WNW,298,22.0,52.0,8,0.00,,,0.00,0.000000,,2013-03-21 08:52:00,
2013-03-21 02:53:00,64.0,-1.0,-100.00,NW,310,17.0,32.0,7,0.00,,,0.00,0.000000,,2013-03-21 09:53:00,
2013-03-21 03:53:00,61.0,4.0,-100.00,NW,307,22.0,36.0,10,0.00,,,0.00,0.000000,,2013-03-21 10:53:00,
2013-03-21 04:53:00,62.0,7.0,-100.00,WNW,290,16.0,31.0,11,0.00,,,0.00,0.000000,,2013-03-21 11:53:00,
2013-03-21 05:53:00,59.0,13.0,-100.00,SSW,206,7.0,36.0,16,0.00,,,0.00,0.000000,,2013-03-21 12:53:00,
2013-03-21 06:02:00,59.0,13.0,-100.00,SSW,206,7.0,36.0,16,0.00,,,0.00,0.000000,,2013-03-21 13:02:00,
2013-03-21 06:12:00,59.0,13.0,-100.00,SSW,206,7.0,36.0,16,0.00,,,0.00,0.000000,,2013-03-21 13:12:00,
2013-03-21 06:22:00,59.0,13.0,-100.00,SSW,206,7.0,36.0,16,0.00,,,0.00,0.000000,,2013-03-21 13:22:00,
2013-03-21 06:52:00,57.0,13.0,-100.00,NW,308,8.0,18.0,17,0.00,,,0.00,0.000000,,2013-03-21 13:52:00,
2013-03-21 07:02:00,57.0,13.0,-100.00,NW,308,8.0,18.0,17,0.00,,,0.00,0.000000,,2013-03-21 14:02:00,
2013-03-21 07:52:00,56.0,19.0,-100.00,SW,223,5.0,17.0,23,0.00,,,0.00,15.000000,,2013-03-21 14:52:00,
2013-03-21 08:03:00,56.0,19.0,-100.00,SW,223,5.0,17.0,23,0.00,,,0.00,15.000000,,2013-03-21 15:03:00,
2013-03-21 08:12:00,56.0,19.0,-100.00,SW,223,5.0,17.0,23,0.00,,,0.00,15.000000,,2013-03-21 15:12:00,
2013-03-21 08:22:00,56.0,19.0,-100.00,SW,223,5.0,17.0,23,0.00,,,0.00,15.000000,,2013-03-21 15:22:00,
2013-03-21 08:53:00,63.0,18.0,-100.00,South,174,1.0,12.0,17,0.00,,,0.00,251.000000,,2013-03-21 15:53:00,
2013-03-21 09:03:00,63.0,18.0,-100.00,South,174,1.0,12.0,17,0.00,,,0.00,251.000000,,2013-03-21 16:03:00,
2013-03-21 09:53:00,61.0,16.0,-100.00,SE,144,6.0,10.0,17,0.00,,,0.00,514.000000,,2013-03-21 16:53:00,
2013-03-21 10:02:00,61.0,16.0,-100.00,SE,144,6.0,10.0,17,0.00,,,0.00,514.000000,,2013-03-21 17:02:00,
2013-03-21 10:12:00,61.0,16.0,-100.00,SE,144,6.0,10.0,17,0.00,,,0.00,514.000000,,2013-03-21 17:12:00,
2013-03-21 10:22:00,61.0,16.0,-100.00,SE,144,6.0,10.0,17,0.00,,,0.00,514.000000,,2013-03-21 17:22:00,
2013-03-21 10:53:00,69.0,14.0,-100.00,ENE,72,4.0,9.0,12,0.00,,,0.00,810.000000,,2013-03-21 17:53:00,
2013-03-21 11:02:00,69.0,14.0,-100.00,ENE,72,4.0,9.0,12,0.00,,,0.00,810.000000,,2013-03-21 18:02:00,
2013-03-21 11:12:00,69.0,14.0,-100.00,ENE,72,4.0,9.0,12,0.00,,,0.00,810.000000,,2013-03-21 18:12:00,
2013-03-21 11:22:00,69.0,14.0,-100.00,ENE,72,4.0,9.0,12,0.00,,,0.00,810.000000,,2013-03-21 18:22:00,
2013-03-21 11:52:00,70.0,11.0,-100.00,East,97,5.0,11.0,10,0.00,,,0.00,1021.000000,,2013-03-21 18:52:00,
2013-03-21 12:53:00,70.0,9.0,-100.00,SE,134,5.0,15.0,9,0.00,,,0.00,1153.000000,,2013-03-21 19:53:00,
2013-03-21 13:53:00,73.0,8.0,-100.00,SSE,152,9.0,20.0,8,0.00,,,0.00,1197.000000,,2013-03-21 20:53:00,
2013-03-21 14:53:00,74.0,16.0,-100.00,SSE,148,10.0,19.0,11,0.00,,,0.00,1153.000000,,2013-03-21 21:53:00,
2013-03-21 15:02:00,74.0,16.0,-100.00,SSE,148,10.0,19.0,11,0.00,,,0.00,1153.000000,,2013-03-21 22:02:00,
2013-03-21 15:12:00,74.0,16.0,-100.00,SSE,148,10.0,19.0,11,0.00,,,0.00,1153.000000,,2013-03-21 22:12:00,
2013-03-21 15:23:00,74.0,16.0,-100.00,SSE,148,10.0,19.0,11,0.00,,,0.00,1153.000000,,2013-03-21 22:23:00,
2013-03-21 15:52:00,73.0,23.0,-100.00,SSE,156,15.0,23.0,15,0.00,,,0.00,1020.000000,,2013-03-21 22:52:00,
2013-03-21 16:02:00,73.0,23.0,-100.00,SSE,156,15.0,23.0,15,0.00,,,0.00,1020.000000,,2013-03-21 23:02:00,
2013-03-21 16:12:00,73.0,23.0,-100.00,SSE,156,15.0,23.0,15,0.00,,,0.00,1020.000000,,2013-03-21 23:12:00,
2013-03-21 16:21:00,73.0,23.0,-100.00,SSE,156,15.0,23.0,15,0.00,,,0.00,1020.000000,,2013-03-21 23:21:00,
2013-03-21 16:53:00,73.0,26.0,-100.00,South,184,14.0,26.0,17,0.00,,,0.00,814.000000,,2013-03-21 23:53:00,
2013-03-21 17:02:00,73.0,26.0,-100.00,South,184,14.0,26.0,17,0.00,,,0.00,814.000000,,2013-03-22 00:02:00,
2013-03-21 17:12:00,73.0,26.0,-100.00,South,184,14.0,26.0,17,0.00,,,0.00,814.000000,,2013-03-22 00:12:00,
2013-03-21 17:21:00,73.0,26.0,-100.00,South,184,14.0,26.0,17,0.00,,,0.00,814.000000,,2013-03-22 00:21:00,
2013-03-21 17:52:00,70.0,29.0,-100.00,WNW,289,6.0,17.0,22,0.00,,,0.00,551.000000,,2013-03-22 00:52:00,
2013-03-21 18:02:00,70.0,29.0,-100.00,WNW,289,6.0,17.0,22,0.00,,,0.00,551.000000,,2013-03-22 01:02:00,
2013-03-21 18:12:00,70.0,29.0,-100.00,WNW,289,6.0,17.0,22,0.00,,,0.00,551.000000,,2013-03-22 01:12:00,
2013-03-21 18:21:00,70.0,29.0,-100.00,WNW,289,6.0,17.0,22,0.00,,,0.00,551.000000,,2013-03-22 01:21:00,
2013-03-21 18:53:00,65.0,20.0,-100.00,WNW,301,13.0,25.0,18,0.00,,,0.00,132.000000,,2013-03-22 01:53:00,
2013-03-21 19:02:00,65.0,20.0,-100.00,WNW,301,13.0,25.0,18,0.00,,,0.00,132.000000,,2013-03-22 02:02:00,
2013-03-21 19:12:00,65.0,20.0,-100.00,WNW,301,13.0,25.0,18,0.00,,,0.00,132.000000,,2013-03-22 02:12:00,
2013-03-21 19:22:00,65.0,20.0,-100.00,WNW,301,13.0,25.0,18,0.00,,,0.00,132.000000,,2013-03-22 02:22:00,
2013-03-21 19:52:00,61.0,21.0,-100.00,WNW,290,16.0,28.0,21,0.00,,,0.00,13.000000,,2013-03-22 02:52:00,
2013-03-21 20:02:00,61.0,21.0,-100.00,WNW,290,16.0,28.0,21,0.00,,,0.00,13.000000,,2013-03-22 03:02:00,
2013-03-21 20:12:00,61.0,21.0,-100.00,WNW,290,16.0,28.0,21,0.00,,,0.00,13.000000,,2013-03-22 03:12:00,
2013-03-21 20:21:00,61.0,21.0,-100.00,WNW,290,16.0,28.0,21,0.00,,,0.00,13.000000,,2013-03-22 03:21:00,
2013-03-21 20:53:00,63.0,3.0,-100.00,NW,310,22.0,34.0,9,0.00,,,0.00,0.000000,,2013-03-22 03:53:00,
2013-03-21 21:52:00,63.0,13.0,-100.00,WNW,300,18.0,32.0,14,0.00,,,0.00,0.000000,,2013-03-22 04:52:00,
2013-03-21 22:52:00,62.0,18.0,-100.00,West,281,10.0,29.0,18,0.00,,,0.00,0.000000,,2013-03-22 05:52:00,
2013-03-21 23:02:00,62.0,18.0,-100.00,West,281,10.0,29.0,18,0.00,,,0.00,0.000000,,2013-03-22 06:02:00,
2013-03-21 23:12:00,62.0,18.0,-100.00,West,281,10.0,29.0,18,0.00,,,0.00,0.000000,,2013-03-22 06:12:00,
2013-03-21 23:21:00,62.0,18.0,-100.00,West,281,10.0,29.0,18,0.00,,,0.00,0.000000,,2013-03-22 06:21:00,
2013-03-21 23:52:00,61.0,21.0,-100.00,NW,311,13.0,23.0,21,0.00,,,0.00,0.000000,,2013-03-22 06:52:00,